Tracking 19286 objects as of 19-Nov-2018
HD Live streaming from Space Station
objects crossing your sky now

LEMUR 2 NOGUECORREIG

Track LEMUR 2 NOGUECORREIG now!
10-day predictions
LEMUR 2 NOGUECORREIG is classified as:


NORAD ID: 41996
Int'l Code: 2017-008BA
Perigee: 493.8 km
Apogee: 505.7 km
Inclination: 97.4 °
Period: 94.5 minutes
Semi major axis: 6870 km
RCS: Unknown
Launch date: February 15, 2017
Source: United States (US)
Launch site: SRIHARIKOTA (SRI)
aabbcc
Your satellite tracking list
Your tracking list is empty




NASA's NSSDC Master Catalog

Two Line Element Set (TLE):
1 41996U 17008BA  18322.88860106 +.00001663 +00000-0 +70745-4 0  9991
2 41996 097.4337 026.5075 0008619 176.2262 183.9042 15.24390878096884
Source of the keplerian elements: AFSPC